Home   Weather   Leawood   Past weeks

Flag for USA Past Weather in Leawood, Kansas, USA — Yesterday and Last 2 Weeks

Now
16 °F

Clear.


Feels Like: 3 °F
Forecast: 15 / 24 °F
Wind: 12 mph from Northwest

Location: Johnson County Executive Airport

Current Time: Dec 8, 2016 at 4:14:52 am

Latest Report: Dec 8, 2016 at 3:53 am


Visibility: 10 mi

Pressure: 30.56 "Hg

Humidity: 65%

Dew Point: 6 °F

Location of LeawoodLocation

Past Weather in Leawood — Graph

°F

Leawood Temperature Yesterday

Maximum temperature yesterday: 33 °F (at 1:53 am)
Minimum temperature yesterday: 20 °F (at 9:53 pm)
Average temperature yesterday: 27 °F

High & Low Weather Summary for the Past Weeks

 TemperatureHumidityPressure
High58 °F (Nov 28, 10:53 am)100% (Dec 4, 10:53 pm)30.55 "Hg (Dec 4, 10:53 pm)
Low17 °F (Dec 8, 2:53 am)37% (Nov 28, 3:53 pm)29.15 "Hg (Nov 28, 12:53 pm)
Average40 °F71%30.00 "Hg
* Reported Nov 23 2:53 am — Dec 8 2:53 am, Leawood, Weather by CustomWeather, © 2016

Note: Actual official high and low records may vary slightly from our data, if they occured in-between our weather recording intervals... More about our weather records

Advertising

Leawood Weather History for the Previous 24 Hours

Scroll right to see more
 ConditionsComfort  
Time TempWeatherWind HumidityBarometerVisibility
2:53 am
Thu, Dec 8
17 °FClear.13 mph64%30.55 "Hg10 mi
1:53 am18 °FClear.9 mph62%30.53 "Hg10 mi
12:53 am19 °FClear.12 mph59%30.52 "Hg10 mi
11:53 pm
Wed, Dec 7
20 °FClear.10 mph60%30.51 "Hg10 mi
10:53 pm20 °FClear.9 mph62%30.50 "Hg10 mi
9:53 pm20 °FClear.7 mph65%30.49 "Hg10 mi
8:53 pm22 °FClear.8 mph62%30.47 "Hg10 mi
7:53 pm23 °FClear.8 mph68%30.45 "Hg10 mi
6:53 pm24 °FPassing clouds.9 mph68%30.42 "Hg10 mi
5:53 pm24 °FOvercast.10 mph68%30.41 "Hg10 mi
4:53 pm24 °FOvercast.6 mph77%30.38 "Hg10 mi
3:53 pm24 °FLight snow. Ice fog.8 mph84%30.37 "Hg3 mi
2:53 pm25 °FLight snow. Ice fog.10 mph85%30.35 "Hg1 mi
2:00 pm26 °FLight snow. Ice fog.9 mph84%30.30 "Hg4 mi
12:55 pm26 °FLight snow. Ice fog.7 mph88%30.30 "Hg1 mi
12:00 pm25 °FLight snow. Ice fog.7 mph85%30.31 "Hg1 mi
10:53 am28 °FMostly cloudy.7 mph51%30.34 "Hg10 mi
9:53 am29 °FOvercast.9 mph49%30.32 "Hg10 mi
8:53 am30 °FMostly cloudy.10 mph41%30.28 "Hg10 mi
7:53 am30 °FOvercast.6 mph45%30.25 "Hg10 mi
6:53 am30 °FOvercast.6 mph45%30.21 "Hg10 mi
5:53 am30 °FMostly cloudy.12 mph41%30.17 "Hg10 mi
4:53 am30 °FMostly cloudy.13 mph45%30.16 "Hg10 mi
Weather by CustomWeather, © 2016

See weather overviewHow to use our weather pages